Weather History for Osijek - Cepin, Croatia

Change the Weather History Date:

Monday, December 10, 2012

  Actual Average Record
Temperature  
Mean Temperature 13 °F -  
Max Temperature 23 °F - - ()
Min Temperature 3 °F - - ()
Degree Days  
Heating Degree Days 52    
Moisture  
Dew Point 13 °F    
Average Humidity 90    
Maximum Humidity 93    
Minimum Humidity 80    
Precipitation  
Precipitation 0.00 in - - ()
Sea Level Pressure  
Sea Level Pressure 29.87 in    
Wind  
Wind Speed 6 mph ()    
Max Wind Speed 10 mph    
Max Gust Speed -    
Visibility 4.6 miles    
Events      
T = Trace of Precipitation, MM = Missing Value Source: Averaged Metar Reports

Daily Weather History Graph

Daily Weather History Graph

Search for Another Location

Airport:

Trip Planner

Search our weather history database for the weather conditions in past years. The results will help you decide how hot, cold, wet, or windy it might be!

Date:

Astronomy

Dec. 10, 2012 Rise Set
Actual Time 7:13 AM CET 4:01 PM CET
Civil Twilight 6:39 AM CET 4:35 PM CET
Nautical Twilight 6:02 AM CET 5:12 PM CET
Astronomical Twilight 5:26 AM CET 5:48 PM CET
Moon 3:29 AM CET (12/10) 1:42 PM CET (12/10)
Length of Visible Light 9h 55m
Length of Day
8h 47m
Waning Crescent, 12% of the Moon is Illuminated
Dec 10
Waning Crescent
Dec 13
New
Dec 20
First Quarter
Dec 28
Full
Jan 5
Last Quarter

Hourly Weather History & Observations

Time (CET) Temp. Windchill Dew Point Humidity Pressure Visibility Wind Dir Wind Speed Gust Speed Precip Events Conditions
12:00 AM 8.6 °F -1.3 °F 6.8 °F 92% 29.95 in - SW 5.8 mph - N/A   Clear
12:30 AM 8.6 °F -2.6 °F 6.8 °F 92% 29.95 in - SW 6.9 mph - N/A   Clear
1:00 AM 6.8 °F -2.0 °F 5.0 °F 92% 29.95 in - South 4.6 mph - N/A   Clear
1:30 AM 6.8 °F -2.0 °F 5.0 °F 92% 29.95 in - SSE 4.6 mph - N/A   Clear
2:00 AM 6.8 °F -4.8 °F 5.0 °F 92% 29.95 in - SSW 6.9 mph - N/A   Clear
2:30 AM 6.8 °F -4.8 °F 5.0 °F 92% 29.95 in - South 6.9 mph - N/A   Clear
3:00 AM 3.2 °F -7.8 °F 1.4 °F 92% 29.92 in - South 5.8 mph - N/A   Clear
3:30 AM 3.2 °F -7.8 °F 1.4 °F 92% 29.92 in - SSW 5.8 mph - N/A   Clear
4:00 AM 5.0 °F -5.6 °F 3.2 °F 92% 29.92 in - SSW 5.8 mph - N/A   Clear
4:30 AM 5.0 °F -6.9 °F 3.2 °F 92% 29.89 in - South 6.9 mph - N/A   Clear
5:00 AM 3.2 °F -11.3 °F 1.4 °F 92% 29.89 in - SSW 9.2 mph - N/A   Clear
5:30 AM 3.2 °F -11.3 °F 1.4 °F 92% 29.89 in - South 9.2 mph - N/A   Clear
6:00 AM 3.2 °F -12.2 °F 1.4 °F 92% 29.86 in - South 10.4 mph - N/A   Clear
6:30 AM 3.2 °F -9.1 °F 1.4 °F 92% 29.86 in - South 6.9 mph - N/A   Clear
7:00 AM 10.4 °F 0.8 °F 8.6 °F 92% 29.89 in - South 5.8 mph - N/A   Clear
7:30 AM 8.6 °F -1.3 °F 6.8 °F 92% 29.89 in 3.7 mi South 5.8 mph - N/A   Unknown
8:00 AM 8.6 °F 0.1 °F 6.8 °F 92% 29.89 in 3.7 mi South 4.6 mph - N/A   Unknown
8:30 AM 8.6 °F -3.7 °F 6.8 °F 92% 29.89 in 3.7 mi SE 8.1 mph - N/A   Unknown
9:00 AM 12.2 °F 0.7 °F 10.4 °F 92% 29.86 in 3.7 mi SSE 8.1 mph - N/A   Unknown
9:30 AM 15.8 °F 6.1 °F 14.0 °F 93% 29.89 in 4.3 mi SSE 6.9 mph - N/A   Unknown
10:00 AM 15.8 °F 5.1 °F 12.2 °F 86% 29.89 in 5.0 mi SE 8.1 mph - N/A   Unknown
10:30 AM 17.6 °F 9.3 °F 14.0 °F 86% 29.86 in - SE 5.8 mph - N/A   Clear
11:00 AM 21.2 °F 11.7 °F 17.6 °F 86% 29.86 in - SSE 8.1 mph - N/A   Clear
11:30 AM 23.0 °F 14.7 °F 17.6 °F 80% 29.86 in - SE 6.9 mph - N/A   Clear
12:00 PM 23.0 °F 13.1 °F 17.6 °F 80% 29.83 in - SSE 9.2 mph - N/A   Clear
12:30 PM 23.0 °F 13.1 °F 17.6 °F 80% 29.83 in - SE 9.2 mph - N/A   Clear
1:00 PM - - - N/A% 29.83 in - SSE 5.8 mph - N/A   Clear
1:30 PM 23.0 °F 15.8 °F 17.6 °F 80% 29.83 in - SSE 5.8 mph - N/A   Clear
2:00 PM 23.0 °F 18.4 °F 17.6 °F 80% 29.83 in - SSE 3.5 mph - N/A   Clear
2:30 PM 23.0 °F 15.8 °F 19.4 °F 86% 29.83 in - South 5.8 mph - N/A   Clear
3:00 PM 23.0 °F 14.7 °F 19.4 °F 86% 29.83 in - South 6.9 mph - N/A   Clear
3:30 PM 21.2 °F 16.4 °F 17.6 °F 86% 29.83 in - South 3.5 mph - N/A   Clear
4:00 PM 21.2 °F - 17.6 °F 86% 29.83 in - Variable 2.3 mph - N/A   Clear
4:30 PM 21.2 °F 13.6 °F 17.6 °F 86% 29.83 in - SE 5.8 mph - N/A   Clear
5:00 PM 21.2 °F 12.6 °F 19.4 °F 93% 29.83 in - SE 6.9 mph - N/A   Clear
5:30 PM 21.2 °F 13.6 °F 19.4 °F 93% 29.83 in - SE 5.8 mph - N/A   Clear
6:00 PM 21.2 °F 13.6 °F 19.4 °F 93% 29.83 in - SE 5.8 mph - N/A   Clear
6:30 PM 21.2 °F 12.6 °F 19.4 °F 93% 29.83 in 5.0 mi East 6.9 mph - N/A   Unknown
7:00 PM 21.2 °F 12.6 °F 19.4 °F 93% 29.83 in 5.0 mi SE 6.9 mph - N/A   Unknown
7:30 PM 21.2 °F 12.6 °F 17.6 °F 86% 29.83 in 5.0 mi SE 6.9 mph - N/A   Unknown
8:00 PM 21.2 °F 14.9 °F 19.4 °F 93% 29.83 in 5.0 mi South 4.6 mph - N/A   Unknown
8:30 PM 21.2 °F - 19.4 °F 93% 29.83 in 5.0 mi Calm Calm - N/A   Unknown
9:00 PM 21.2 °F - 19.4 °F 93% 29.83 in 5.0 mi Calm Calm - N/A   Unknown
9:30 PM 21.2 °F - 19.4 °F 93% 29.83 in 5.0 mi Calm Calm - N/A   Unknown
10:00 PM 21.2 °F - 19.4 °F 93% 29.83 in 5.0 mi East 2.3 mph - N/A   Unknown
10:30 PM 21.2 °F 16.4 °F 19.4 °F 93% 29.86 in 5.0 mi East 3.5 mph - N/A   Unknown
11:00 PM 19.4 °F 12.8 °F 15.8 °F 86% 29.83 in 4.3 mi East 4.6 mph - N/A   Unknown
11:30 PM 19.4 °F 14.3 °F 15.8 °F 86% 29.83 in 4.3 mi East 3.5 mph - N/A   Unknown